Regional Weather Roundup
Issued by NWS

Home | Current Version | Previous Version | Text Only | Print | Product List | Glossary Off
Versions: 1 2 3 4 5 6 7 8 9 10 11 12 13 14 15 16 17 18 19 20 21 22 23 24 25 26 27 28 29 30 31 32 33 34 35 36 37 38 39 40 41 42 43 44 45 46 47 48 49 50

000
ASUS43 KDTX 270710
RWRMI
MICHIGAN HOURLY REGIONAL WEATHER ROUNDUP
NATIONAL WEATHER SERVICE DETROIT/PONTIAC MI
200 AM EST FRI FEB 27 2015

NOTE: "FAIR" INDICATES FEW OR NO CLOUDS BELOW 12,000 FEET WITH NO
SIGNIFICANT WEATHER AND/OR OBSTRUCTION TO VISIBILITY.

MIZ047>049-052>055-059>063-066>070-074>076-081>083-270800-
SOUTHEAST LOWER MICHIGAN

CITY           SKY/WX    TMP DP  RH WIND       PRES   REMARKS
ADRIAN         CLEAR     -4  -9  79 NW3       30.37R
ALMA           CLEAR     -6 -14  66 NW5       30.39R WCI -17
ANN ARBOR      CLEAR     -7 -12  79 CALM      30.35R
BAD AXE        CLOUDY    -6  -9  84 CALM      30.36S
CARO           CLEAR    -11 -15  82 CALM      30.37S
DETROIT CITY   CLEAR      4  -5  66 CALM      30.37R
DETROIT        PTCLDY     4   0  83 CALM      30.38R
FLINT          CLEAR     -6 -11  79 CALM      30.36S
GROSSE ILE     CLEAR      1  -2  85 CALM      30.36R
HILLSDALE      CLEAR     -3  -8  79 CALM      30.32R
HOWELL         CLEAR     -4  -8  84 W3        30.33S

CITY           SKY/WX    TMP DP  RH WIND       PRES   REMARKS
JACKSON        CLEAR     -8 -12  83 NW6       30.35R WCI -21
LAMBERTVILLE   CLEAR      0  -4  85 CALM      30.38R
LANSING        CLEAR     -1 -11  62 NW7       30.38R WCI -14
LAPEER         CLOUDY   -10 -15  79 CALM      30.35S
MASON          CLEAR     -2  -8  74 NW3       30.36R
MONROE         CLEAR     -2  -6  84 CALM      30.36R
MT. CLEMENS    PTCLDY     0  -5  78 NW5       30.35R WCI -10
PONTIAC        PTCLDY    -5 -10  79 CALM      30.33R HAZE
PORT HOPE        N/A      3  -6  66 NW7       30.36R WCI  -9
PORT HURON     CLEAR     -9 -15  77 W3        30.36S
TRI CITIES     CLEAR      0 -11  59 NW7       30.39R WCI -13
TROY           PTCLDY     3  -3  74 CALM      30.38R
SAGINAW HB     CLEAR      0  -8  71 NW5       30.39R WCI -10
$$
MIZ043>046-050>051-056>058-064>065-071>073-077>080-270800-
SOUTHWEST LOWER MICHIGAN

CITY           SKY/WX    TMP DP  RH WIND       PRES   REMARKS
BATTLE CREEK   CLEAR      0 -10  63 N3        30.37R
BENTON HARBOR  CLOUDY     4  -7  60 NE6       30.41R WCI  -7
BIG RAPIDS     CLEAR    -11 -16  78 CALM      30.35S
COLDWATER      CLEAR     -8 -12  81 CALM      30.35S
FREMONT        FAIR      -7 -14  72 CALM      30.38S
HOLLAND        CLEAR     -1 -11  62 E3        30.41S
GRAND RAPIDS   CLEAR      1 -11  57 NE3       30.39S
IONIA          FAIR      -1 -11  63 N5        30.37S WCI -11
KALAMAZOO      CLEAR     -1  -9  68 N5        30.38R WCI -11
LUDINGTON      MOCLDY    -2  -9  74 CALM      30.40S HAZE
MARSHALL       CLEAR    -12 -16  83 CALM      30.36R
MOUNT PLEASANT CLEAR     -5 -13  68 CALM      30.38R
MUSKEGON       CLEAR     -3 -11  68 CALM      30.41S
SOUTH HAVEN    CLOUDY     3  -9  58 E3        30.40S
$$
MIZ016>042-270800-
NORTHERN LOWER MICHIGAN

CITY           SKY/WX    TMP DP  RH WIND       PRES   REMARKS
ALPENA         CLEAR     -8 -13  78 W5        30.37R WCI -19
BEAVER ISLAND  CLEAR    -11 -15  82 CALM      30.36S
BELLAIRE       CLEAR    -18 -24  75 CALM      30.40S
CADILLAC       CLEAR    -22 -29  69 CALM      30.30S
CHARLEVOIX     CLEAR    -14 -19  79 CALM      30.40R
FRANKFORT      CLOUDY    -7 -11  81 CALM      30.39R
GAYLORD        CLEAR    -16 -23  70 CALM      30.29R
GRAYLING       CLEAR    -24 -30  71 CALM      30.34R
HARBOR SPRINGS CLEAR    -14 -19  79 CALM      30.35S
HOUGHTON LAKE  CLEAR    -17 -21  82 CALM      30.34R
MANISTEE       MOCLDY    -8 -15  71 E3        30.39S
OSCODA         CLEAR    -12 -18  76 SW3       30.37R
PELLSTON       CLEAR    -23 -28  78 CALM      30.36S
ROGERS CITY    CLEAR     -4  -8  82 W5        30.36S WCI -15
TRAVERSE CITY  CLEAR    -15 -20  78 CALM      30.38S
$$
MIZ007>008-015-270800-
EASTERN UPPER MICHIGAN

CITY           SKY/WX    TMP DP  RH WIND       PRES   REMARKS
KINROSS        PTCLDY    -8  -9  92 SW6       30.31S WCI -21
MACKINAC ISLAN CLEAR     -6 -10  81 SW10      30.34S WCI -23
NEWBERRY       CLEAR     -6  -8  90 SW8       30.31S WCI -21
S. S. MARIE    LGT SNOW  -1  -7  75 SW5       30.31R WCI -11
MUNISING         N/A     -9 -15  75 S8        30.35R WCI -25
$$
MIZ004>006-011>014-085-270800-
CENTRAL UPPER MICHIGAN

CITY           SKY/WX    TMP DP  RH WIND       PRES   REMARKS
MANISTIQUE     PTCLDY    -3  -8  79 W7        30.35S WCI -17
ESCANABA       CLEAR    -11 N/A N/A W3        30.38S
MENOMINEE      CLEAR     -9 -15  77 CALM      30.39S
SAWYER-GWINN   CLEAR    -12 -17  78 W5        30.29R WCI -23
$$
MIZ001>003-009>011-084-270800-
WESTERN UPPER MICHIGAN

CITY           SKY/WX    TMP DP  RH WIND       PRES   REMARKS
IRON MOUNTAIN  CLEAR     -9 -16  71 CALM      30.31S
HOUGHTON       CLEAR     -5 -11  75 NW7       30.30R WCI -19
COPPER HARBOR    N/A      4  -4  69 NW5       30.32S WCI  -5
IRONWOOD       CLEAR     -8 -26  41 SW6       30.32R WCI -21
$$

ABBREVIATIONS USED IN REMARKS
   TC - TEMPERATURE IN CELSIUS
  WCI - WIND CHILL INDEX
   HX - HEAT INDEX
  VSB - VISIBILITY




USA.gov is the U.S. government's official web portal to all federal, state and local government web resources and services.